, AK

(GMT )
Aniak

Weather History for PANI - October, 2012

Change the Weather History Date:

Wednesday, October 24, 2012

  Actual Average Record
Temperature  
Mean Temperature 19 °F -  
Max Temperature 24 °F 27 °F 42 °F (2002)
Min Temperature 14 °F 16 °F -2 °F (1997)
Degree Days  
Heating Degree Days 46    
Moisture  
Dew Point 8 °F    
Average Humidity 62    
Maximum Humidity 68    
Minimum Humidity 40    
Precipitation  
Precipitation 0.00 in - - ()
Sea Level Pressure  
Sea Level Pressure 30.50 in    
Wind  
Wind Speed 6 mph (NNE)    
Max Wind Speed 14 mph    
Max Gust Speed 22 mph    
Visibility 10 miles    
Events      
Averages and records for this station are not official NWS values.
T = Trace of Precipitation, MM = Missing Value Source: NWS Daily Summary

Daily Weather History Graph

Daily Weather History Graph

Search for Another Location

Airport or City:

Trip Planner

Search our weather history database for the weather conditions in past years. The results will help you decide how hot, cold, wet, or windy it might be!

Date:

Astronomy

Oct. 24, 2012 Rise Set
Actual Time 9:47 AM AKDT 6:55 PM AKDT
Civil Twilight 9:01 AM AKDT 7:41 PM AKDT
Nautical Twilight 8:10 AM AKDT 8:32 PM AKDT
Astronomical Twilight 7:19 AM AKDT 9:23 PM AKDT
Moon 5:23 PM AKDT (10/24) 3:38 AM AKDT (10/24)
Length of Visible Light 10h 40m
Length of Day
9h 08m
Waxing Gibbous, 77% of the Moon is Illuminated
Oct 24
Waxing Gibbous
Oct 29
Full
Nov 6
Last Quarter
Nov 13
New
Nov 20
First Quarter

Hourly Weather History & Observations

Time (AKDT) Temp. Windchill Dew Point Humidity Pressure Visibility Wind Dir Wind Speed Gust Speed Precip Events Conditions
12:16 AM 19.4 °F 14.3 °F 10.4 °F 68% 30.50 in 10.0 mi East 3.5 mph - N/A   Clear
12:36 AM 19.4 °F 14.3 °F 10.4 °F 68% 30.50 in 10.0 mi NNE 3.5 mph - N/A   Clear
12:56 AM 19.4 °F 10.4 °F 8.6 °F 63% 30.51 in 10.0 mi NNE 6.9 mph - N/A   Clear
1:16 AM 19.4 °F 14.3 °F 10.4 °F 68% 30.51 in 10.0 mi NNE 3.5 mph - N/A   Clear
1:36 AM 19.4 °F 12.8 °F 8.6 °F 63% 30.51 in 10.0 mi North 4.6 mph - N/A   Clear
1:56 AM 19.4 °F 7.9 °F 8.6 °F 63% 30.52 in 10.0 mi NNE 10.4 mph 16.1 mph N/A   Clear
2:16 AM 19.4 °F 11.5 °F 8.6 °F 63% 30.51 in 10.0 mi NNE 5.8 mph - N/A   Clear
2:36 AM 17.6 °F 6.4 °F 8.6 °F 68% 30.50 in 10.0 mi NNE 9.2 mph - N/A   Clear
2:56 AM 17.6 °F 10.7 °F 8.6 °F 68% 30.50 in 10.0 mi NNE 4.6 mph 16.1 mph N/A   Clear
3:16 AM 17.6 °F 8.2 °F 8.6 °F 68% 30.50 in 10.0 mi NNE 6.9 mph - N/A   Clear
3:36 AM 17.6 °F 7.3 °F 8.6 °F 68% 30.50 in 10.0 mi NNE 8.1 mph - N/A   Clear
3:56 AM 17.6 °F 9.3 °F 8.6 °F 68% 30.50 in 10.0 mi North 5.8 mph - N/A   Clear
4:16 AM 17.6 °F 12.3 °F 8.6 °F 68% 30.49 in 10.0 mi North 3.5 mph - N/A   Clear
4:36 AM 17.6 °F 10.7 °F 8.6 °F 68% 30.50 in 10.0 mi North 4.6 mph - N/A   Clear
4:56 AM 17.6 °F 8.2 °F 6.8 °F 63% 30.50 in 10.0 mi North 6.9 mph - N/A   Clear
5:16 AM 17.6 °F 9.3 °F 6.8 °F 63% 30.51 in 10.0 mi NNE 5.8 mph - N/A   Clear
5:36 AM 17.6 °F 7.3 °F 6.8 °F 63% 30.51 in 10.0 mi NNE 8.1 mph - N/A   Clear
5:56 AM 17.6 °F 8.2 °F 6.8 °F 63% 30.52 in 10.0 mi NNE 6.9 mph - N/A   Clear
6:16 AM 17.6 °F 7.3 °F 6.8 °F 63% 30.52 in 10.0 mi NE 8.1 mph - N/A   Clear
6:36 AM 15.8 °F 7.2 °F 6.8 °F 68% 30.53 in 10.0 mi NNE 5.8 mph - N/A   Clear
6:56 AM 15.8 °F 5.1 °F 6.8 °F 68% 30.53 in 10.0 mi NE 8.1 mph - N/A   Clear
7:16 AM 15.8 °F 6.1 °F 6.8 °F 68% 30.53 in 10.0 mi North 6.9 mph - N/A   Clear
7:36 AM 15.8 °F 8.6 °F 6.8 °F 68% 30.52 in 10.0 mi North 4.6 mph - N/A   Clear
7:56 AM 15.8 °F 8.6 °F 6.8 °F 68% 30.52 in 10.0 mi NNW 4.6 mph - N/A   Clear
8:16 AM 15.8 °F 5.1 °F 5.0 °F 62% 30.51 in 10.0 mi North 8.1 mph - N/A   Clear
8:36 AM 15.8 °F 5.1 °F 6.8 °F 68% 30.51 in 10.0 mi NNE 8.1 mph - N/A   Clear
8:56 AM 15.8 °F 8.6 °F 6.8 °F 68% 30.52 in 10.0 mi ENE 4.6 mph - N/A   Clear
9:16 AM 15.8 °F 7.2 °F 5.0 °F 62% 30.52 in 10.0 mi NE 5.8 mph - N/A   Clear
9:36 AM 14.0 °F 3.9 °F 5.0 °F 67% 30.52 in 10.0 mi NNE 6.9 mph - N/A   Clear
9:56 AM 15.8 °F 5.1 °F 5.0 °F 62% 30.51 in 10.0 mi NE 8.1 mph - N/A   Clear
10:16 AM 15.8 °F 7.2 °F 5.0 °F 62% 30.51 in 10.0 mi NNE 5.8 mph - N/A   Clear
10:36 AM 15.8 °F - 6.8 °F 68% 30.51 in 10.0 mi Calm Calm - N/A   Clear
10:56 AM 15.8 °F 7.2 °F 5.0 °F 62% 30.51 in 10.0 mi NNE 5.8 mph - N/A   Clear
11:16 AM 15.8 °F 7.2 °F 6.8 °F 68% 30.51 in 10.0 mi NNE 5.8 mph - N/A   Clear
11:36 AM 17.6 °F 9.3 °F 6.8 °F 63% 30.51 in 10.0 mi NNE 5.8 mph - N/A   Clear
11:56 AM 17.6 °F 9.3 °F 6.8 °F 63% 30.51 in 10.0 mi NNE 5.8 mph - N/A   Clear
12:16 PM 17.6 °F 8.2 °F 6.8 °F 63% 30.51 in 10.0 mi NNE 6.9 mph - N/A   Clear
12:36 PM 19.4 °F 10.4 °F 8.6 °F 63% 30.50 in 10.0 mi NE 6.9 mph - N/A   Clear
12:56 PM 19.4 °F 10.4 °F 6.8 °F 58% 30.50 in 10.0 mi North 6.9 mph - N/A   Clear
1:16 PM 19.4 °F 10.4 °F 8.6 °F 63% 30.50 in 10.0 mi North 6.9 mph - N/A   Clear
1:36 PM 21.2 °F 11.7 °F 8.6 °F 58% 30.50 in 10.0 mi North 8.1 mph - N/A   Clear
1:56 PM 21.2 °F 11.7 °F 10.4 °F 63% 30.49 in 10.0 mi North 8.1 mph - N/A   Clear
2:16 PM 23.0 °F 12.4 °F 10.4 °F 59% 30.50 in 10.0 mi North 10.4 mph - N/A   Clear
2:36 PM 23.0 °F 13.1 °F 8.6 °F 54% 30.49 in 10.0 mi NNE 9.2 mph 16.1 mph N/A   Clear
2:56 PM 24.8 °F 15.3 °F 8.6 °F 50% 30.50 in 10.0 mi North 9.2 mph - N/A   Clear
3:16 PM 24.8 °F 13.4 °F 8.6 °F 50% 30.49 in 10.0 mi NNE 12.7 mph - N/A   Clear
3:36 PM 24.8 °F 14.6 °F 8.6 °F 50% 30.49 in 10.0 mi NNE 10.4 mph 20.7 mph N/A   Clear
3:56 PM 24.8 °F 16.1 °F 10.4 °F 54% 30.49 in 10.0 mi NNE 8.1 mph 16.1 mph N/A   Clear
4:16 PM 24.8 °F 16.1 °F 10.4 °F 54% 30.48 in 10.0 mi NNE 8.1 mph - N/A   Clear
4:36 PM 24.8 °F 16.1 °F 10.4 °F 54% 30.48 in 10.0 mi North 8.1 mph 18.4 mph N/A   Clear
4:56 PM 24.8 °F 16.1 °F 10.4 °F 54% 30.48 in 10.0 mi North 8.1 mph 16.1 mph N/A   Clear
5:16 PM 24.8 °F 14.0 °F 10.4 °F 54% 30.48 in 10.0 mi North 11.5 mph 18.4 mph N/A   Clear
5:36 PM 23.0 °F 11.7 °F 10.4 °F 59% 30.48 in 10.0 mi NNE 11.5 mph 21.9 mph N/A   Clear
5:56 PM 23.0 °F 10.6 °F 10.4 °F 59% 30.48 in 10.0 mi North 13.8 mph 21.9 mph N/A   Clear
6:16 PM 23.0 °F 12.4 °F 12.2 °F 63% 30.49 in 10.0 mi North 10.4 mph 19.6 mph N/A   Clear
6:36 PM 21.2 °F 10.1 °F 10.4 °F 63% 30.49 in 10.0 mi North 10.4 mph 17.3 mph N/A   Clear
6:56 PM 21.2 °F 12.6 °F 10.4 °F 63% 30.49 in 10.0 mi North 6.9 mph 17.3 mph N/A   Clear
7:16 PM 21.2 °F 11.7 °F 10.4 °F 63% 30.49 in 10.0 mi North 8.1 mph 17.3 mph N/A   Clear
7:36 PM 21.2 °F 11.7 °F 10.4 °F 63% 30.49 in 10.0 mi NNE 8.1 mph 17.3 mph N/A   Clear
7:56 PM 21.2 °F 11.7 °F 10.4 °F 63% 30.50 in 10.0 mi North 8.1 mph 16.1 mph N/A   Clear
10:16 PM 21.2 °F 11.7 °F 10.4 °F 63% 30.51 in 10.0 mi NNE 8.1 mph - N/A   Clear
10:36 PM 21.2 °F 13.6 °F 10.4 °F 63% 30.51 in 10.0 mi NE 5.8 mph - N/A   Clear
10:56 PM 21.2 °F 12.6 °F 8.6 °F 58% 30.51 in 10.0 mi NNE 6.9 mph - N/A   Clear
11:16 PM 21.2 °F 12.6 °F 10.4 °F 63% 30.51 in 10.0 mi NE 6.9 mph - N/A   Clear
11:36 PM 21.2 °F 16.4 °F 10.4 °F 63% 30.51 in 10.0 mi NE 3.5 mph - N/A   Clear
11:56 PM 21.2 °F - 10.4 °F 63% 30.51 in 10.0 mi Calm Calm - N/A   Clear